Hourly Weather Otnurok

Today, 8 May, Saturday

Time Temperature Precipitation Wind Pressure Humidity
00:00 +8°C° 0 mm 0 mps 716 mmHg 66%
01:00 +8°C° 0 mm 0 mps 716 mmHg 68%
02:00 +8°C° 0 mm 0 mps 716 mmHg 70%
03:00 +8°C° 0 mm 0 mps 716 mmHg 71%
04:00 +8°C° 0 mm 0 mps 716 mmHg 73%
05:00 +9°C° 0 mm 0 mps 716 mmHg 68%
06:00 +11°C° 0 mm 0 mps 716 mmHg 64%
07:00 +12°C° 0 mm 0 mps 716 mmHg 59%
08:00 +14°C° 0 mm 0 mps 716 mmHg 53%
09:00 +18°C° 0 mm 1 mps 716 mmHg 47%
10:00 +19°C° 0 mm 1 mps 716 mmHg 41%
11:00 +19°C° 0 mm 1 mps 716 mmHg 42%
12:00 +19°C° 0 mm 1 mps 716 mmHg 42%
13:00 +18°C° 0 mm 1 mps 716 mmHg 42%
14:00 +17°C° 0.1 mm 2 mps 715 mmHg 46%
15:00 +17°C° 0.1 mm 2 mps 715 mmHg 50%
16:00 +16°C° 0.1 mm 2 mps 715 mmHg 54%
17:00 +15°C° 0.2 mm 2 mps 715 mmHg 61%
18:00 +14°C° 0.2 mm 1 mps 715 mmHg 68%
19:00 +13°C° 0.2 mm 1 mps 715 mmHg 75%
20:00 +12°C° 0 mm 1 mps 715 mmHg 78%
21:00 +11°C° 0 mm 1 mps 715 mmHg 82%
22:00 +11°C° 0 mm 1 mps 715 mmHg 85%
23:00 +10°C° 0 mm 1 mps 715 mmHg 85%

Tomorrow, 9 May, Sunday

Time Temperature Precipitation Wind Pressure Humidity
00:00 +10°C° 0 mm 1 mps 715 mmHg 85%
01:00 +10°C° 0 mm 1 mps 715 mmHg 85%
02:00 +10°C° 0 mm 1 mps 715 mmHg 85%
03:00 +10°C° 0 mm 1 mps 715 mmHg 85%
04:00 +9°C° 0 mm 0 mps 715 mmHg 84%
05:00 +10°C° 0 mm 0 mps 715 mmHg 80%
06:00 +11°C° 0 mm 0 mps 715 mmHg 75%
07:00 +12°C° 0 mm 0 mps 715 mmHg 71%
08:00 +15°C° 0.2 mm 1 mps 715 mmHg 62%
09:00 +16°C° 0.2 mm 1 mps 715 mmHg 54%
10:00 +19°C° 0.2 mm 1 mps 715 mmHg 45%
11:00 +19°C° 0 mm 1 mps 715 mmHg 42%
12:00 +20°C° 0 mm 1 mps 715 mmHg 39%
13:00 +20°C° 0 mm 1 mps 715 mmHg 35%
14:00 +20°C° 0 mm 1 mps 715 mmHg 36%
15:00 +20°C° 0 mm 1 mps 715 mmHg 36%
16:00 +19°C° 0 mm 2 mps 716 mmHg 37%
17:00 +18°C° 0 mm 1 mps 716 mmHg 43%
18:00 +16°C° 0 mm 1 mps 716 mmHg 49%
19:00 +15°C° 0 mm 1 mps 716 mmHg 54%
20:00 +14°C° 0 mm 1 mps 716 mmHg 58%
21:00 +12°C° 0 mm 1 mps 716 mmHg 61%
22:00 +11°C° 0 mm 1 mps 717 mmHg 65%
23:00 +11°C° 0 mm 1 mps 717 mmHg 67%

Day after tomorrow, 10 May, Monday

Time Temperature Precipitation Wind Pressure Humidity
00:00 +10°C° 0 mm 1 mps 717 mmHg 69%
01:00 +10°C° 0 mm 1 mps 717 mmHg 71%
02:00 +9°C° 0 mm 1 mps 717 mmHg 72%
03:00 +9°C° 0 mm 1 mps 717 mmHg 73%
04:00 +9°C° 0 mm 1 mps 718 mmHg 74%
05:00 +11°C° 0 mm 1 mps 718 mmHg 69%
06:00 +12°C° 0 mm 1 mps 718 mmHg 63%
07:00 +14°C° 0 mm 1 mps 719 mmHg 58%
08:00 +16°C° 0 mm 2 mps 719 mmHg 53%
09:00 +17°C° 0 mm 2 mps 719 mmHg 48%
10:00 +18°C° 0 mm 3 mps 719 mmHg 44%
11:00 +19°C° 0 mm 3 mps 719 mmHg 40%
12:00 +20°C° 0 mm 3 mps 719 mmHg 37%
13:00 +21°C° 0 mm 3 mps 719 mmHg 33%
14:00 +21°C° 0 mm 3 mps 719 mmHg 33%
15:00 +21°C° 0 mm 3 mps 719 mmHg 33%
16:00 +20°C° 0 mm 2 mps 719 mmHg 33%
17:00 +19°C° 0 mm 2 mps 719 mmHg 39%
18:00 +18°C° 0 mm 2 mps 719 mmHg 46%
19:00 +16°C° 0 mm 1 mps 720 mmHg 52%
20:00 +15°C° 0 mm 1 mps 720 mmHg 55%
21:00 +14°C° 0 mm 1 mps 720 mmHg 57%
22:00 +13°C° 0 mm 1 mps 720 mmHg 60%
23:00 +12°C° 0 mm 1 mps 720 mmHg 61%

11 May, Tuesday

Time Temperature Precipitation Wind Pressure Humidity
00:00 +11°C° 0 mm 1 mps 721 mmHg 62%
01:00 +11°C° 0 mm 1 mps 721 mmHg 64%
02:00 +10°C° 0 mm 1 mps 721 mmHg 64%
03:00 +9°C° 0 mm 0 mps 721 mmHg 65%
04:00 +8°C° 0 mm 0 mps 721 mmHg 65%
05:00 +10°C° 0 mm 0 mps 721 mmHg 61%
06:00 +12°C° 0 mm 0 mps 722 mmHg 56%
07:00 +13°C° 0 mm 0 mps 722 mmHg 51%
08:00 +15°C° 0 mm 0 mps 722 mmHg 47%
09:00 +19°C° 0 mm 1 mps 722 mmHg 42%
10:00 +21°C° 0 mm 1 mps 723 mmHg 38%
11:00 +22°C° 0 mm 1 mps 723 mmHg 36%
12:00 +23°C° 0 mm 2 mps 722 mmHg 34%
13:00 +23°C° 0 mm 2 mps 722 mmHg 32%
14:00 +23°C° 0 mm 2 mps 722 mmHg 33%
15:00 +22°C° 0 mm 3 mps 722 mmHg 35%
16:00 +22°C° 0 mm 3 mps 722 mmHg 37%
17:00 +20°C° 0 mm 2 mps 722 mmHg 44%
18:00 +19°C° 0 mm 2 mps 723 mmHg 52%
19:00 +18°C° 0 mm 1 mps 723 mmHg 60%
20:00 +16°C° 0 mm 1 mps 723 mmHg 65%
21:00 +15°C° 0 mm 1 mps 723 mmHg 71%
22:00 +13°C° 0 mm 1 mps 723 mmHg 76%
23:00 +13°C° 0 mm 1 mps 723 mmHg 79%

12 May, Wednesday

Time Temperature Precipitation Wind Pressure Humidity
00:00 +12°C° 0 mm 1 mps 723 mmHg 83%
01:00 +11°C° 0 mm 1 mps 723 mmHg 87%
02:00 +11°C° 0 mm 1 mps 723 mmHg 88%
03:00 +11°C° 0 mm 1 mps 723 mmHg 90%
04:00 +10°C° 0 mm 1 mps 723 mmHg 92%
05:00 +12°C° 0 mm 1 mps 724 mmHg 84%
06:00 +14°C° 0 mm 1 mps 724 mmHg 77%
07:00 +15°C° 0 mm 1 mps 724 mmHg 70%
08:00 +18°C° 0 mm 1 mps 724 mmHg 62%
09:00 +20°C° 0 mm 1 mps 724 mmHg 55%
10:00 +21°C° 0 mm 1 mps 724 mmHg 47%
11:00 +22°C° 0 mm 1 mps 724 mmHg 43%
12:00 +23°C° 0 mm 1 mps 724 mmHg 40%
13:00 +23°C° 0 mm 2 mps 724 mmHg 36%
14:00 +23°C° 0 mm 2 mps 724 mmHg 36%
15:00 +23°C° 0 mm 2 mps 724 mmHg 37%
16:00 +23°C° 0 mm 2 mps 723 mmHg 37%
17:00 +20°C° 0 mm 2 mps 723 mmHg 43%
18:00 +19°C° 0 mm 2 mps 723 mmHg 49%
19:00 +19°C° 0 mm 1 mps 723 mmHg 55%
20:00 +16°C° 0 mm 1 mps 723 mmHg 59%
21:00 +15°C° 0 mm 1 mps 723 mmHg 64%
22:00 +13°C° 0 mm 1 mps 724 mmHg 69%
23:00 +12°C° 0 mm 1 mps 724 mmHg 71%

13 May, Thursday

Time Temperature Precipitation Wind Pressure Humidity
00:00 +12°C° 0 mm 1 mps 724 mmHg 74%
01:00 +11°C° 0 mm 1 mps 724 mmHg 76%
02:00 +11°C° 0 mm 1 mps 724 mmHg 78%
03:00 +11°C° 0 mm 1 mps 724 mmHg 79%
04:00 +11°C° 0 mm 1 mps 724 mmHg 80%
05:00 +13°C° 0 mm 1 mps 724 mmHg 74%
06:00 +14°C° 0 mm 0 mps 724 mmHg 67%
07:00 +15°C° 0 mm 0 mps 724 mmHg 61%
08:00 +19°C° 0 mm 1 mps 724 mmHg 55%
09:00 +20°C° 0 mm 1 mps 724 mmHg 49%
10:00 +21°C° 0 mm 2 mps 724 mmHg 44%
11:00 +23°C° 0 mm 2 mps 724 mmHg 42%
12:00 +23°C° 0 mm 2 mps 724 mmHg 40%
13:00 +24°C° 0 mm 2 mps 724 mmHg 38%
14:00 +24°C° 0 mm 2 mps 724 mmHg 40%
15:00 +24°C° 0 mm 2 mps 724 mmHg 41%
16:00 +23°C° 0 mm 2 mps 724 mmHg 43%
17:00 +21°C° 0 mm 2 mps 724 mmHg 48%
18:00 +21°C° 0 mm 1 mps 724 mmHg 54%
19:00 +20°C° 0 mm 1 mps 724 mmHg 59%
20:00 +19°C° 0 mm 1 mps 724 mmHg 63%
21:00 +16°C° 0 mm 1 mps 724 mmHg 67%
22:00 +14°C° 0 mm 0 mps 724 mmHg 71%
23:00 +13°C° 0 mm 0 mps 724 mmHg 73%
Show more

We Need Your Consent

Meteoprog and our Service Providers may store and access personal data such as cookies, device identifiers or other similar technologies on your device and process such data to personalise content and ads, as well as provide social media features and to analyse the traffic.

  • Store and/or access information on your device

    Cookies, device identifiers or other information can be stored or accessed on your device for the purposes indicated above.

  • Personalised ads and content, ad and content measurement, audience insights, and products development

    Ads and content can be personalised based on a profile. More data can be added to better personalise ads and content. Ad and content performance can be measured. Insights about the audience who saw the ads and content can be derived. Such data can be used to develop or improve user’s experience, systems and software.

By clicking ‘I Agree’ you will allow the use of indicated cookies, device identifiers, web beacons or other similar technologies. Your settings can be changed in the browser on your device.

For certain purposes, legitimate interests may be relied on, rather than consent. You can read more about this in our Privacy and Cookie Policy.